Jackpot

Texas Poker Multi Jackpot System

Kini Telah hadir Jackpot SUPER ROYAL FLUSH

Kini Telah hadir Jackpot 2000 (khusus table VIP keatas).

Ikutilah global jackpot yang tersedia di system kami, dengan system jackpot terbaru dan pertama di indonesia, anda dapat membeli jackpot dengan harga 100 rupiah saja dan menangkan hadiahnya hingga puluhan juta rupiah.

Jackpot bukanlah suatu keharusan untuk dibeli, namun kami memberikan suatu fitur tambahan untuk member tercinta dari www.668poker.org.

Terdapat tiga pilihan harga jackpot yang bisa anda beli yaitu :100,500,1000 dan 2000(khusus table VIP Keatas) rupiah.

Hadiah dari Multi jackpot system www.668poker.org

  1. full house x 10 harga jackpot yang anda beli.
      (contoh:anda membeli 1000 maka:1000 X10 = 10.000)
  2. four of kind x 250 harga jackpot yang anda beli
      (contoh:anda membeli 1000 maka:1000 X250 = 250.000)
  3. Straight flush x 1200
      (contoh:anda membeli 1000 maka:1000 X1200 = 1.200.000)
  4. Royal flush x 10000 harga jackpot yang anda beli
      (contoh:anda membeli 1000 maka:1000 X10000 = 10.000.000)
  5. SUPER ROYAL FLUSH x 30000 harga jackpot yang anda beli
      (contoh:anda membeli 1000 maka:1000 X30000 = 30.000.000)

Kondisi kartu

  1. full house adalah kondisi kartu dimana kartu anda dan kartu tengah dengan total 7 kartu bisa mendapatkan nilai 5 kartu dengan kombinasi 1 tris(three of kind) dan 1 pair, contoh 3 kartu 10 dan 2 kartu 5
  2. Four of kind adalah kondisi kartu dimana kartu anda dan kartu tengah dengan total 7 kartu bisa mendapatkan nilai 5 kartu dengan kombinasi 4 kartu yang sama jumlah dan 1 kartu apapun juga contoh anda mendapatkan 4 buah kartu angka 3 dan 1 kartu apapun.
  3. Staright flush adalah kondisi kartu dimana kartu anda dan kartu tengah dengan total 7 kartu bisa mendapatkan nilai 5 kartu dengan kombinasi seri / staright dengan kembang yang sama contoh : urutan kartu dari angka 5, 6, 7, 8 , 9 10 dengan kembang yg sama misalnya as hati
  4. Royal flush adalah kondisi kartu dimana kartu anda dan kartu tengah dengan total 7 kartu bisa mendapatkan nilai 5 kartu dengan kombinasi seri / staright dengan kembang yang sama tetapi kartu tersebut haruslah dimulai dari 10. contoh 10, Queen, Jack, King dan aces dengan kembang yang sama
  5. Super Royal flush adalah kondisi kartu dimana Kedua kartu anda digabung dengan 3 kartu pertama meja haruslah royal flush. contoh kartu anda 10,Queen kembang sama dan 3 kartu pertama meja adalah Jack, King dan aces dengan kembang yang sama

Demikian adalah penjelasan dari Multi Jackpot www.668poker.org terima kasih dan selamat bermain salam hoki dari kami

Texas Poker Jackpot Winner

TOP SUPER ROYAL FLUSH
No.TanggalNamaPriceWin
101/09 05:21AHONG_JR56Super Royal flush6,000,000
201/09 02:27UBIJALE24Super Royal flush6,000,000
331/08 21:05YYM88Super Royal flush6,000,000
431/08 17:48G4DCHUVTSuper Royal flush6,000,000
531/08 16:44GEMBOZ99Super Royal flush3,000,000
TOP ROYAL FLUSH
No.TanggalNamaPriceWin
101/09 11:43KIKI118Royal flush10,000,000
201/09 11:39HERMANZ7Royal flush5,000,000
301/09 11:19K1NGDANNRoyal flush20,000,000
401/09 11:19BKN3DRoyal flush10,000,000
501/09 11:14WKWKWK12Royal flush5,000,000
TOP STRAIGHT FLUSH
No.TanggalNamaPriceWin
101/09 11:51VHIRONGStraight Flush1,200,000
201/09 11:50RYANCOLI23Straight Flush1,200,000
301/09 11:49ULANGI89Straight Flush600,000
401/09 11:48ASSDD_888Straight Flush240,000
501/09 11:48NAIF333Straight Flush120,000
LATEST JACKPOT
No.TanggalNamaPriceWin
101/09 11:52YAHANU2Full House1,000
201/09 11:52B_U_SFull House1,000
301/09 11:52ADIRA19Full House1,000
401/09 11:52MAYONG95Full House10,000
501/09 11:52ZHUANZA77Full House1,000
601/09 11:52FXIVYF4D6HFull House10,000
701/09 11:52T8Q1EPC4HVFull House5,000
801/09 11:52BUFFON13Full House2,000
901/09 11:52KAKES123Full House2,000
1001/09 11:52IZ606967Four Of A Kind50,000
1101/09 11:52ANAKDESAFull House2,000
1201/09 11:52RENRA123Full House20,000
1301/09 11:52C84CTRL03828Full House500
1401/09 11:52BLOON88Full House1,000
1501/09 11:52KEEENCIT99Full House5,000
1601/09 11:52COROWOT99Full House2,000
1701/09 11:52V33RZ4HR47Full House5,000
1801/09 11:52BENOJAIS10Four Of A Kind50,000
1901/09 11:520YOT106Full House2,000
2001/09 11:52S98KCBRVF7Full House2,000
2101/09 11:52PUTRIHOKY8Four Of A Kind50,000
2201/09 11:52YUSRON9191Full House5,000
2301/09 11:52SAANGAARFull House5,000
2401/09 11:52DIRHAM12Four Of A Kind250,000
2501/09 11:52OOBAGAS89Full House10,000
2601/09 11:52BIPEL333Full House500
2701/09 11:52PKR88_73Full House1,000
2801/09 11:52ONDEH_990Full House2,000
2901/09 11:52JAWABARATFull House5,000
3001/09 11:52LECOOPERFull House20,000
3101/09 11:52TATIK20Full House10,000
3201/09 11:52K4T4KEFull House2,000
3301/09 11:51GAMBLE08Full House2,000
3401/09 11:51KOYONGENE0Full House5,000
3501/09 11:51JELI02Four Of A Kind125,000
3601/09 11:51BAGSFour Of A Kind50,000
3701/09 11:51RCGF0E0CX6Full House2,000
3801/09 11:51BRENGOS133Full House5,000
3901/09 11:51KARATOP47Full House5,000
4001/09 11:51DB32A5CDFull House10,000
4101/09 11:51VHIRONGStraight Flush1,200,000
4201/09 11:51KOWEEW3Full House5,000
4301/09 11:51PRO_09Full House2,000
4401/09 11:51DANA101011Full House10,000
4501/09 11:51HOKYNYA_01Full House10,000
4601/09 11:51KPMODERNSFull House2,000
4701/09 11:51T4DMASTERJPFull House5,000
4801/09 11:51AA90IPFull House1,000
4901/09 11:51MEDALDICKYFull House5,000
5001/09 11:51MUMU5000Full House2,000

Domino Multi Jackpot System

Ikutilah global jackpot yang tersedia di system kami, dengan system jackpot terbaru dan pertama di indonesia, anda dapat membeli jackpot dengan harga 100 rupiah saja dan menangkan hadiahnya hingga puluhan juta rupiah.

Jackpot bukanlah suatu keharusan untuk dibeli, namun kami memberikan suatu fitur tambahan untuk member tercinta dari www.668poker.org.

Terdapat tiga pilihan harga jackpot yang bisa anda beli yaitu :100,500 dan 1000 rupiah.

Hadiah dari Multi jackpot system www.668poker.org

  1. Murni Kecil x 50 harga jackpot yang anda beli.
      (contoh:anda membeli 1000 maka:1000 X 50 = 50.000)
  2. Murni Besar x 50 harga jackpot yang anda beli
      (contoh:anda membeli 1000 maka:1000 X 50 = 50.000)
  3. BALAK x 100 harga jackpot yang anda beli
      (contoh:anda membeli 1000 maka:1000 X 100 = 100.000)
  4. ENAM DEWA x 6666 harga jackpot yang anda beli
      (contoh:anda membeli 1000 maka:1000 X 6666 = 6.666.000)

Demikian adalah penjelasan dari Multi Jackpot www.668poker.org terima kasih dan selamat bermain salam hoki dari kami

Domino Jackpot Winner

TOP ENAM DEWA
No.TanggalNamaPriceWin
101/09 11:14REKYYY45murni enam6,666,000
201/09 07:49ATIN_99murni enam6,666,000
301/09 07:18AXELALATASmurni enam3,333,000
401/09 05:38GHY0murni enam666,600
501/09 00:34TEMPUYAK90murni enam666,600
TOP BALAK
No.TanggalNamaPriceWin
101/09 11:49INDROK123balak100,000
201/09 11:49BIBI90balak50,000
301/09 11:46BATTEWbalak100,000
401/09 11:39IDK8995451balak50,000
501/09 11:37VERYJUMEX8balak100,000
LATEST JACKPOT
No.TanggalNamaPriceWin
101/09 11:52LAUK_NILEMmurni kecil25,000
201/09 11:52RATTIH99murni kecil25,000
301/09 11:51T118PAREMEmurni besar50,000
401/09 11:51BATTEWmurni besar50,000
501/09 11:50G4COORBRO9murni kecil5,000
601/09 11:50COKREKKmurni besar50,000
701/09 11:49INDROK123balak100,000
801/09 11:49TAISBDmurni besar50,000
901/09 11:49STAVOLT15murni kecil25,000
1001/09 11:49BIBI90balak50,000
1101/09 11:48FEBBY2murni besar25,000
1201/09 11:47RASIQPACUmurni besar25,000
1301/09 11:47R3J3KI2018murni kecil50,000
1401/09 11:47ANCUT79murni besar50,000
1501/09 11:46RXKING204murni kecil50,000
1601/09 11:46BATTEWbalak100,000
1701/09 11:46LUXXZmurni besar50,000
1801/09 11:45COMBRO96murni besar25,000
1901/09 11:45SIDE72murni besar50,000
2001/09 11:45BEDJO121murni besar25,000
2101/09 11:45SRMO5DKMCQmurni besar50,000
2201/09 11:43RONI123murni besar25,000
2301/09 11:42SOBQ88murni besar5,000
2401/09 11:42BP888063murni besar50,000
2501/09 11:42POK71murni kecil50,000
2601/09 11:41KERAS365murni besar25,000
2701/09 11:41DEMPLON969murni kecil50,000
2801/09 11:40GOTUN66699murni kecil5,000
2901/09 11:40BB424F10lucky992,500
3001/09 11:40J0NImurni besar50,000
3101/09 11:39Z10ND4murni kecil5,000
3201/09 11:39B61OGOR524murni kecil5,000
3301/09 11:39DEGA15murni kecil5,000
3401/09 11:39IDK8995451balak50,000
3501/09 11:38MANK9999murni kecil25,000
3601/09 11:38XONOX77murni besar50,000
3701/09 11:37VERYJUMEX8balak100,000
3801/09 11:37TAKIKIS99lucky9925,000
3901/09 11:37JHONONAR31murni kecil50,000
4001/09 11:37UASSUKABEHmurni besar50,000
4101/09 11:36CHAS06murni besar25,000
4201/09 11:35JAIHOmurni kecil5,000
4301/09 11:35T5Z2457X6Qmurni kecil50,000
4401/09 11:33EUY10murni kecil50,000
4501/09 11:33SEAWARRIORmurni besar50,000
4601/09 11:32COSMAS99balak100,000
4701/09 11:31DAPUR66murni kecil50,000
4801/09 11:31T118PAREMEmurni besar25,000
4901/09 11:31MRHARIZ300murni besar50,000
5001/09 11:30MARYANTO70murni kecil25,000

Ceme Multi Jackpot System

Jackpot dilihat dari gabungan kartu pemain dengan kartu bandar. Bandar harus membeli jackpot sebanyak jumlah player yang sedang duduk. Sebagai contoh bila terdapat 3 pemain duduk bermain, dan bandar memutuskan untuk membeli jackpot Rp 1.000, maka pada periode tersebut bandar akan membeli jackpot sebanyak 3xRp1.000 = Rp3.000.

Jackpot bukanlah suatu keharusan untuk dibeli, namun kami memberikan suatu fitur tambahan untuk member tercinta dari www.668poker.org.

Terdapat tiga pilihan harga jackpot yang bisa anda beli yaitu :100,500 dan 1000 rupiah.

Hadiah dari Multi jackpot system www.668poker.org

  1. Murni Kecil x 50 harga jackpot yang anda beli.
      (contoh:anda membeli 1000 maka:1000 X 50 = 50.000)
  2. Murni Besar x 50 harga jackpot yang anda beli
      (contoh:anda membeli 1000 maka:1000 X 50 = 50.000)
  3. BALAK x 200 harga jackpot yang anda beli
      (contoh:anda membeli 1000 maka:1000 X 200 = 200.000)
  4. ENAM DEWA x 6666 harga jackpot yang anda beli
      (contoh:anda membeli 1000 maka:1000 X 6666 = 6.666.000)

Demikian adalah penjelasan dari Multi Jackpot www.668poker.org terima kasih dan selamat bermain salam hoki dari kami

Ceme Jackpot Winner

TOP ENAM DEWA
No.TanggalNamaPriceWin
101/09 11:52PUTRA072murni enam666,600
201/09 11:46JALLU24murni enam6,666,000
301/09 11:26ARSYILA45murni enam6,666,000
401/09 11:26WISNUNSmurni enam6,666,000
501/09 11:10MEIZAYmurni enam6,666,000
TOP BALAK
No.TanggalNamaPriceWin
101/09 11:52TORRY81balak200,000
201/09 11:52ZAMBERIAbalak20,000
301/09 11:51MRV02P2QCObalak200,000
401/09 11:50BAYOUNGSSSbalak200,000
501/09 11:49PARASU77balak200,000
LATEST JACKPOT
No.TanggalNamaPriceWin
101/09 11:52KILERS347murni kecil50,000
201/09 11:52AFK95MI05murni kecil50,000
301/09 11:52KILERS347murni kecil50,000
401/09 11:52RIFQI92murni kecil5,000
501/09 11:52TORRY81balak200,000
601/09 11:52RAMD4N1murni kecil50,000
701/09 11:52AKONGMAILmurni kecil50,000
801/09 11:52AZKA11murni kecil50,000
901/09 11:52PROKOLLLmurni kecil50,000
1001/09 11:52WARASSS9murni besar25,000
1101/09 11:52ZAMBERIAbalak20,000
1201/09 11:52AWEL_12murni kecil5,000
1301/09 11:52PUTRA072murni enam666,600
1401/09 11:51MRV02P2QCObalak200,000
1501/09 11:51DWBTK1168murni besar5,000
1601/09 11:51XINGWEmurni besar50,000
1701/09 11:51MFFFF27murni kecil25,000
1801/09 11:51GAP46murni kecil50,000
1901/09 11:51NEWCOMER1murni besar50,000
2001/09 11:51INCES011murni kecil50,000
2101/09 11:51ERIKMIRAmurni kecil50,000
2201/09 11:51H4NUM88murni kecil25,000
2301/09 11:51DOMSDAY69murni kecil50,000
2401/09 11:50ZAFRANSmurni kecil50,000
2501/09 11:50BARCA123murni besar25,000
2601/09 11:50FUKYUNG85murni besar5,000
2701/09 11:50HASAN99Xmurni besar50,000
2801/09 11:50SANSHIRO01murni besar50,000
2901/09 11:50NUANSA08murni besar50,000
3001/09 11:50LIAN18murni besar50,000
3101/09 11:50MI4B27murni kecil50,000
3201/09 11:50DEKYIEmurni kecil25,000
3301/09 11:50JCAMERLINEmurni kecil5,000
3401/09 11:50JHOKERASASmurni kecil50,000
3501/09 11:50MFFFF27murni besar25,000
3601/09 11:50S4DAMmurni besar50,000
3701/09 11:50HARLEY889murni besar50,000
3801/09 11:50ALDIRA094murni besar5,000
3901/09 11:50JUDENG919murni besar50,000
4001/09 11:50DN4DSANTOWImurni kecil5,000
4101/09 11:50SAKILIK1murni kecil50,000
4201/09 11:50BAYOUNGSSSbalak200,000
4301/09 11:50BALI2018murni besar50,000
4401/09 11:50OLONmurni besar5,000
4501/09 11:50GAOKZ616murni besar50,000
4601/09 11:50PONGKINGmurni kecil5,000
4701/09 11:50UJILmurni kecil50,000
4801/09 11:50ASEPDOLLARmurni besar50,000
4901/09 11:49R0Y4L_4JTmurni kecil25,000
5001/09 11:49PARASU77balak200,000